GFSMA_250_spd_123.txt.gz
Wind_Speed
45 44 42 39 35 35 28 26 30 29 29 29 28 29 31 33 28 22 25 28 31 37 36 34 35 40 44 48 49 44 37 36 39 34 29 28 27 24 19 19 16 14 12
44 45 44 41 38 37 32 25 29 29 29 29 28 28 29 31 30 28 21 31 33 37 40 33 41 36 48 50 48 50 40 34 36 31 30 27 28 24 21 20 14 12 11
45 47 46 40 36 34 32 31 28 30 28 30 30 29 28 32 32 31 26 29 37 37 43 44 45 44 49 51 52 49 45 36 36 33 28 28 29 26 20 14 13 12 10
46 48 42 37 35 32 32 32 29 29 29 31 31 29 28 32 35 33 29 27 36 39 40 47 47 53 51 52 50 48 45 44 39 32 29 27 29 25 18 15 18 15 14
41 43 41 38 38 35 31 30 32 31 31 31 32 29 28 32 36 36 34 26 34 40 40 44 50 56 55 54 56 53 51 49 38 30 30 29 29 22 20 19 20 16 14
44 44 43 44 41 37 30 32 35 32 31 30 32 31 30 33 35 38 36 31 31 40 42 43 48 54 61 64 62 60 55 47 39 33 33 30 26 23 21 20 23 20 18
45 47 49 48 45 40 39 36 34 32 32 29 34 31 32 34 35 39 39 35 31 39 41 42 44 47 55 61 65 61 54 45 37 31 33 33 28 24 23 25 27 23 24
44 44 47 44 41 40 41 41 41 38 32 30 33 30 35 34 37 41 42 38 32 36 41 41 41 41 45 52 59 49 40 36 39 30 36 36 32 28 28 29 28 25 24
43 44 45 40 36 37 39 37 34 34 35 32 30 36 33 34 38 42 42 42 35 35 40 39 35 33 33 38 45 41 36 37 35 32 38 37 35 33 34 33 33 27 24
46 46 43 37 38 40 40 38 38 32 34 32 31 34 34 36 39 45 45 43 40 34 37 38 35 37 37 41 42 42 39 37 34 35 38 39 37 36 36 34 35 33 28
47 43 37 32 33 30 32 30 30 30 31 35 33 36 37 38 42 42 45 44 42 36 35 38 38 43 46 48 47 44 40 38 36 39 40 37 34 36 35 34 31 29 28
50 47 41 40 38 35 35 41 35 38 37 36 37 38 42 45 44 42 41 44 45 38 36 37 40 42 50 45 43 43 35 38 36 38 40 35 34 36 38 35 33 33 34
51 53 46 45 45 46 46 46 44 40 37 37 36 42 45 45 44 42 41 45 47 41 35 38 37 41 43 41 42 39 31 33 34 38 36 33 33 35 37 39 43 41 43
53 53 50 44 48 53 50 46 42 46 43 40 43 46 46 47 45 44 46 44 44 40 35 35 34 40 47 48 44 40 41 36 36 38 36 39 41 40 45 44 44 45 46
56 54 51 50 50 52 50 42 37 42 46 49 48 48 46 48 50 51 48 46 43 38 35 35 34 39 47 51 48 47 44 43 43 45 45 44 44 49 49 50 51 52 54
60 56 55 54 50 48 49 47 46 52 51 52 49 52 53 57 56 51 51 49 44 37 34 34 34 41 48 50 49 50 50 49 47 51 52 53 52 56 55 54 55 56 58
64 57 58 52 55 53 54 53 56 58 61 58 56 57 55 57 56 56 56 50 44 36 33 34 32 43 46 53 52 53 56 55 55 56 55 57 60 60 62 62 63 62 62
68 64 59 59 58 59 60 61 61 59 59 55 56 54 58 58 57 61 57 53 46 38 33 36 35 40 46 52 55 51 58 56 57 58 60 59 64 68 64 61 65 63 62
72 69 66 65 62 58 61 61 60 60 59 59 60 60 61 60 62 59 58 56 51 46 42 37 37 43 46 51 58 61 63 63 61 61 64 64 60 63 65 64 63 65 67
74 71 71 71 71 69 70 69 66 65 65 65 64 61 63 64 63 60 57 58 54 55 45 38 39 41 52 52 54 59 62 66 65 67 67 66 65 64 62 65 67 64 62
72 72 70 71 71 71 70 69 68 67 67 65 66 64 66 67 66 66 63 58 56 57 46 44 39 42 47 59 59 58 60 59 59 60 59 59 58 63 67 68 61 64 64
73 73 74 74 73 72 70 69 69 68 69 69 63 62 65 65 66 67 66 60 55 55 55 47 39 43 44 55 65 64 65 65 62 62 61 61 61 65 62 63 63 64 68
77 77 78 77 76 75 72 71 64 64 56 53 60 63 66 67 63 66 70 66 61 55 55 55 48 43 47 50 58 69 69 70 70 66 66 64 64 66 66 65 67 61 56
81 81 82 81 80 79 78 76 70 65 62 64 63 71 74 69 68 61 60 65 62 63 56 53 48 49 52 53 56 56 66 70 71 70 71 71 71 71 71 67 61 57 56
84 86 87 86 85 83 83 83 83 82 84 78 71 81 76 76 75 77 69 69 65 59 61 60 62 63 60 62 62 64 62 58 58 62 67 69 68 66 64 61 60 60 61
80 82 82 83 84 86 86 85 84 82 81 77 74 87 90 90 84 77 73 66 70 75 69 74 63 69 71 65 70 69 69 67 63 61 62 62 63 64 64 64 65 66 69

GFSMA_250_spd_126.txt.gz
Wind_Speed
45 42 41 42 42 38 38 34 35 33 26 30 31 26 26 23 22 23 22 18 20 31 40 42 34 29 27 35 39 41 46 47 48 42 36 36 35 34 32 25 21 15 15
46 44 41 40 42 39 37 36 38 37 26 28 31 28 27 25 22 22 23 23 18 29 37 40 41 36 33 33 43 46 47 46 42 42 36 35 37 33 30 26 23 19 14
43 43 40 42 42 40 39 38 37 33 29 29 30 30 31 28 24 23 23 25 24 23 40 48 43 46 40 38 39 48 51 51 49 43 39 36 35 34 31 27 25 19 15
46 43 43 42 45 45 39 37 33 31 31 34 31 33 34 31 27 25 23 25 26 23 31 48 54 52 49 45 41 47 56 51 49 43 41 42 36 34 33 28 24 20 18
48 46 45 45 46 45 37 36 35 30 33 39 36 35 34 34 29 28 26 26 29 26 25 41 52 58 58 53 47 41 53 56 49 44 42 42 45 36 35 29 25 22 23
51 48 47 44 42 40 39 34 37 34 32 36 37 37 34 35 30 30 30 28 30 28 30 30 48 57 57 61 59 54 41 59 55 50 44 46 46 38 36 31 26 25 26
54 51 47 43 41 42 42 44 40 41 39 33 34 36 35 36 34 32 34 30 30 33 32 31 35 52 58 57 58 60 61 54 63 57 57 54 47 40 36 33 30 29 29
58 50 46 44 42 41 42 46 41 43 43 40 41 42 39 36 34 34 34 33 32 36 34 34 34 40 53 56 56 58 65 64 64 55 55 51 46 37 39 36 32 31 32
60 53 46 42 42 41 41 42 39 39 37 39 39 39 39 37 35 36 35 34 36 39 35 36 38 37 45 50 50 52 55 60 71 70 69 52 41 37 43 41 36 34 34
64 56 51 46 44 43 41 38 34 35 39 38 38 39 37 34 32 36 38 39 40 39 41 35 39 37 41 45 44 46 48 49 53 58 56 44 39 39 43 44 40 39 39
66 59 52 49 47 42 36 33 36 38 38 37 31 34 35 33 37 39 38 43 44 43 43 41 38 36 40 42 40 41 38 39 45 45 46 41 41 41 42 46 42 44 42
66 62 54 53 48 42 35 34 37 37 36 34 38 42 41 41 41 36 41 45 49 48 47 43 41 38 38 40 38 45 40 36 40 45 43 43 43 44 40 44 40 41 42
63 63 59 52 48 46 41 42 46 46 49 49 47 44 43 41 37 38 43 44 45 51 51 47 40 41 35 39 37 49 48 45 42 45 38 44 41 38 35 34 34 36 39
63 66 59 54 52 49 45 46 48 52 52 50 48 49 46 43 41 43 45 43 49 49 49 50 40 45 36 35 34 52 54 49 43 40 39 41 37 32 29 31 35 38 41
64 65 62 56 55 55 51 46 49 50 54 56 52 42 39 43 45 49 50 51 48 49 51 51 43 41 35 35 32 48 53 46 39 44 39 33 32 36 40 41 40 42 44
62 62 65 60 58 59 56 51 55 51 51 56 54 46 44 48 51 54 57 54 54 46 46 51 47 40 32 35 34 40 48 45 38 39 40 41 39 42 43 44 46 47 49
61 67 65 63 61 63 58 57 57 54 55 50 50 50 53 56 58 62 61 54 51 47 46 47 47 42 42 35 36 43 47 50 49 52 51 50 49 48 51 52 54 56 56
68 70 70 70 66 64 64 63 62 60 57 56 55 58 60 63 64 62 60 57 53 50 47 47 48 45 45 42 36 43 46 52 54 52 55 56 55 53 54 58 60 62 62
70 74 75 75 72 69 66 61 60 61 60 61 62 64 66 63 59 59 61 59 54 56 50 49 46 46 44 40 36 41 48 55 55 56 59 59 61 59 59 59 62 66 65
76 74 78 78 72 71 68 69 65 64 66 66 68 70 69 65 65 63 63 60 60 60 55 49 48 47 46 42 38 42 47 52 58 49 53 59 64 63 65 66 63 63 62
76 77 81 81 75 71 71 72 74 73 72 71 69 69 69 69 66 66 64 61 59 57 55 52 54 49 50 48 43 44 44 52 60 64 64 61 60 70 72 72 68 67 69
81 91 78 81 79 76 77 77 76 77 78 76 75 73 70 67 66 66 66 67 61 56 56 59 57 51 48 53 46 45 52 47 59 63 68 73 76 74 68 67 65 64 62
89 85 78 82 81 80 80 79 79 79 79 78 78 77 75 74 73 69 64 60 60 60 60 58 56 59 52 53 50 49 52 50 50 60 69 71 71 70 70 70 67 65 67
80 86 86 85 84 84 83 84 82 80 81 83 81 80 79 74 66 58 60 68 63 64 64 59 61 55 53 54 59 54 49 51 45 51 54 64 73 77 75 73 70 70 72
75 80 84 85 86 87 86 86 85 82 79 85 81 79 76 71 64 58 67 70 69 70 66 60 59 62 66 73 66 58 54 51 54 55 55 58 61 70 78 80 79 77 77
73 77 80 82 85 89 90 90 90 90 90 90 88 85 83 83 78 70 73 83 81 83 82 80 80 71 66 67 64 61 63 64 64 65 66 66 67 68 64 69 72 74 75

GFSMA_250_spd_129.txt.gz
Wind_Speed
44 41 40 40 43 45 44 42 42 37 38 36 34 28 27 28 27 22 22 20 19 20 20 36 40 36 29 27 28 30 29 32 35 39 39 42 39 39 35 36 34 33 25
47 46 43 41 41 40 42 43 42 39 38 38 37 28 28 29 29 24 25 22 21 18 20 26 40 38 35 31 30 30 33 39 41 42 47 45 41 35 34 32 31 33 28
45 50 49 45 41 39 42 39 40 40 39 40 34 32 32 29 31 29 26 25 23 22 19 19 34 44 43 39 37 35 34 36 44 48 47 48 46 41 37 34 32 32 32
47 50 50 49 43 40 41 41 41 43 40 38 34 32 37 36 36 32 30 27 26 23 19 20 21 38 48 48 41 41 39 39 40 48 50 48 44 40 40 39 37 34 35
55 50 52 50 49 44 43 42 45 46 40 38 34 31 38 39 43 38 32 30 29 26 24 21 24 24 40 54 52 50 44 41 39 43 50 50 48 38 42 40 41 36 38
63 50 49 51 52 48 44 44 46 49 36 34 36 34 36 38 41 36 35 34 31 30 27 25 25 27 26 42 61 58 55 51 35 43 46 51 47 42 39 41 42 43 38
63 59 48 53 52 50 47 46 45 44 40 34 40 41 38 36 32 33 38 37 35 32 30 28 29 28 31 29 41 62 64 59 56 48 47 54 55 51 51 49 53 41 39
70 69 57 49 50 52 49 48 46 43 42 40 39 42 43 38 38 40 42 39 36 35 31 31 31 33 34 31 32 45 61 63 65 61 56 55 55 56 50 44 44 40 40
77 69 57 54 50 53 52 51 49 45 43 38 39 36 39 40 38 37 38 37 36 34 34 34 35 38 37 36 34 35 50 59 62 60 57 60 54 46 54 55 56 50 41
74 66 53 55 51 53 52 52 49 44 43 37 34 35 37 38 35 35 36 34 37 39 34 35 38 39 38 41 36 33 39 53 57 58 61 58 58 58 59 58 64 53 43
76 65 53 52 51 54 57 53 48 43 41 35 34 37 39 43 35 35 34 37 37 38 38 39 38 39 40 40 36 35 34 43 51 52 53 60 67 69 71 72 61 45 44
83 76 61 52 56 55 60 59 52 45 38 31 36 33 35 32 36 39 42 45 43 40 37 40 38 39 42 43 39 37 32 39 44 44 43 50 46 47 51 46 43 47 44
85 81 65 57 60 59 62 59 54 47 40 37 45 48 42 49 49 45 42 44 42 41 40 45 41 41 44 43 37 37 32 38 42 42 41 42 45 51 47 42 47 45 44
74 64 63 56 70 73 62 63 57 50 45 43 46 51 50 52 57 52 45 45 43 42 45 46 44 44 46 42 41 38 33 35 41 46 45 40 39 41 40 46 43 41 36
75 62 62 62 74 70 62 66 59 54 50 47 47 50 51 51 54 53 51 47 43 46 48 46 49 47 47 43 43 40 35 32 35 49 47 43 40 35 41 36 40 38 34
97 84 75 78 79 68 65 66 61 60 51 47 48 52 53 55 57 58 54 53 46 45 48 53 55 52 48 46 44 39 40 34 31 46 53 47 42 42 41 35 37 40 38
93 87 82 87 94 74 68 67 63 64 57 53 49 53 50 53 53 52 52 49 52 53 52 58 55 56 53 48 40 38 40 35 31 46 49 50 44 39 40 40 36 40 43
93 98 93 98 79 76 68 69 66 66 63 57 54 51 56 53 56 57 57 57 57 56 57 58 59 56 53 51 41 42 39 35 32 38 51 56 44 45 47 46 48 47 45
88 88 95 88 79 70 68 74 72 69 68 64 64 63 64 66 60 62 62 61 60 61 58 58 55 56 53 51 48 43 39 37 37 34 45 52 53 55 54 53 56 56 58
87 85 80 77 75 73 74 72 76 78 76 73 71 70 69 68 65 64 64 63 64 65 62 59 59 57 56 56 53 46 44 42 37 36 40 53 58 60 59 62 61 65 64
59 64 68 68 67 69 70 72 77 77 77 75 72 72 73 73 71 68 69 70 69 70 67 64 60 57 61 54 47 38 40 40 38 38 40 49 59 58 57 60 64 63 60
59 62 64 68 69 72 73 67 81 80 85 79 77 77 77 76 72 73 73 72 70 69 65 66 64 67 63 54 50 43 45 45 41 44 41 46 55 61 62 60 54 65 67
64 67 68 73 76 78 80 82 82 82 86 86 83 81 82 81 80 79 79 79 77 74 73 70 69 65 61 59 56 51 50 47 50 49 47 45 51 59 65 70 68 68 69
72 75 80 82 83 83 86 88 89 87 88 90 87 85 81 80 81 80 79 78 78 77 74 65 69 66 68 66 63 63 54 55 49 48 50 55 54 55 62 68 74 78 82
79 77 83 85 86 85 84 86 87 89 87 88 90 91 88 85 86 84 81 79 79 80 77 72 64 71 73 74 62 58 58 55 55 56 57 62 53 56 54 58 61 66 71
82 83 81 82 83 90 89 92 90 89 90 93 91 91 92 91 91 91 88 86 83 80 76 71 71 76 83 77 70 72 71 73 71 66 59 69 66 61 62 57 58 63 65

GFSMA_250_spd_132.txt.gz
Wind_Speed
47 43 41 41 41 39 41 42 43 45 47 46 45 38 35 33 20 25 26 23 24 24 22 21 20 31 36 35 34 31 35 36 33 29 27 30 30 36 38 35 33 31 28
50 49 47 41 38 43 42 41 42 42 43 43 42 41 38 36 25 31 28 27 26 27 24 23 23 20 34 34 34 32 30 30 32 28 30 35 34 36 39 37 34 36 34
55 50 51 46 40 40 47 44 43 42 40 38 37 40 40 38 30 28 31 31 28 29 26 25 23 22 20 36 40 39 38 35 33 30 33 39 36 36 38 36 34 33 34
63 60 57 54 48 42 44 50 44 43 40 38 38 41 39 34 29 32 32 35 35 34 28 27 25 24 20 21 38 44 41 39 39 39 40 39 39 35 37 35 36 36 36
66 65 61 59 56 53 47 49 49 44 43 42 41 43 40 38 34 33 32 34 36 36 31 29 28 25 25 23 23 32 49 47 46 42 44 41 39 38 40 41 37 34 38
70 69 57 61 60 58 56 44 52 49 47 43 45 46 45 40 36 35 35 36 34 36 33 34 30 27 23 21 25 26 27 46 54 58 46 41 43 42 48 50 47 38 42
70 65 60 62 63 64 58 48 50 54 49 48 45 43 39 39 40 39 35 32 31 29 31 34 34 30 28 25 29 28 31 34 40 59 61 49 44 39 39 44 39 37 42
64 67 65 69 66 62 56 41 41 53 52 48 44 42 41 42 41 40 42 38 34 37 36 32 33 30 30 23 28 32 33 31 37 43 58 61 48 50 46 47 44 43 43
68 70 68 68 53 53 48 52 44 46 55 48 47 45 44 43 38 41 41 38 38 39 35 32 33 30 29 28 30 31 30 32 36 38 45 54 58 53 52 51 47 38 51
71 75 71 67 65 61 43 46 47 44 52 51 48 49 44 39 37 36 37 33 35 34 33 29 35 38 34 29 32 32 34 34 39 35 39 46 53 52 49 48 49 44 46
72 75 79 72 66 63 47 44 53 44 48 49 50 50 46 38 32 33 38 39 34 31 36 40 39 38 34 34 35 34 34 34 40 35 34 40 48 50 48 47 56 51 51
70 68 80 81 74 58 59 53 54 49 44 47 49 50 47 41 38 32 30 34 34 41 39 41 42 40 37 36 35 35 36 37 36 36 33 35 39 46 46 51 56 62 62
67 58 70 81 76 62 55 61 55 49 41 46 51 53 49 48 44 38 44 43 47 45 44 43 41 40 41 37 38 38 37 37 40 32 34 36 36 40 45 47 50 51 55
50 25 74 74 64 58 59 56 61 61 55 44 53 57 55 54 49 45 47 51 48 52 44 41 49 45 47 42 41 40 40 40 39 37 32 35 40 43 44 41 38 43 44
52 54 60 68 73 61 49 59 59 54 52 46 51 59 58 53 53 50 44 49 51 51 53 55 51 51 46 43 43 41 42 41 40 39 39 37 36 40 43 40 46 46 45
56 86 85 78 95 88 84 55 56 60 58 47 44 57 59 58 56 54 51 50 47 51 56 60 60 55 50 45 46 43 44 43 41 39 39 36 35 36 40 40 46 37 35
87 87 77 83 88 80 76 83 67 64 56 52 48 53 62 59 56 57 50 46 44 59 57 56 52 54 51 54 50 45 46 44 43 41 34 34 36 34 42 39 41 40 35
99 103 99 89 85 86 84 83 82 79 74 68 62 59 66 71 63 57 56 48 38 57 62 60 57 57 54 54 51 49 44 42 46 45 46 42 34 32 41 49 49 46 39
86 95 99 105 105 95 98 100 97 91 83 80 72 68 67 77 72 65 58 60 51 58 66 64 63 62 62 58 54 52 52 50 47 46 47 43 37 33 44 50 55 51 45
91 91 93 98 104 102 101 95 90 89 94 86 79 79 74 79 83 70 65 68 72 64 64 65 66 67 62 59 59 58 58 53 51 45 40 35 39 37 35 48 55 57 53
90 92 93 92 93 87 90 90 94 89 85 82 79 79 79 82 87 86 77 73 77 78 72 62 67 70 62 65 67 65 60 57 54 48 42 40 32 36 37 40 48 59 63
90 88 94 96 96 95 94 94 97 93 87 84 80 81 81 85 94 89 88 82 79 78 77 71 77 72 67 70 71 65 63 61 55 51 50 46 45 39 38 42 39 47 65
97 101 104 104 99 96 91 85 88 86 84 80 79 84 87 92 100 96 92 89 84 83 81 81 79 76 75 75 74 59 67 64 60 53 50 50 47 48 45 40 37 39 46
64 69 73 79 76 76 75 74 74 76 74 75 77 84 86 93 99 102 97 95 89 86 84 83 80 79 81 78 75 76 75 73 65 58 60 58 57 52 49 43 50 48 48
60 64 65 67 69 71 71 73 72 74 76 80 85 86 78 78 92 102 98 99 94 90 88 87 85 85 82 81 78 77 72 70 70 69 67 67 62 52 51 49 53 55 54
62 67 68 70 69 74 77 79 78 81 81 87 90 88 90 95 97 100 98 96 100 95 93 91 86 85 83 84 82 80 77 78 74 74 70 71 68 62 60 62 56 60 63

GFSMA_250_spd_135.txt.gz
Wind_Speed
44 43 44 44 44 41 41 40 36 39 41 42 42 42 41 40 37 29 28 30 27 26 23 24 27 23 24 24 33 36 43 45 42 40 37 34 36 33 28 28 27 28 32
47 44 47 49 48 46 45 37 31 35 42 43 43 44 42 37 35 31 27 31 32 28 26 25 27 26 21 23 23 34 37 41 40 41 39 36 37 33 29 29 32 31 26
51 45 47 50 51 50 49 45 42 39 37 43 44 41 39 36 32 33 34 31 29 29 28 28 28 29 23 24 21 23 35 40 41 38 35 33 33 34 28 33 34 29 27
55 52 50 53 56 52 56 51 46 42 46 42 45 45 42 37 33 32 30 31 31 27 28 32 31 30 27 26 25 21 23 38 44 40 42 44 36 35 37 37 34 33 28
60 55 57 52 55 59 61 57 46 42 48 48 40 47 46 41 37 34 33 34 33 30 30 31 32 31 29 28 27 24 24 25 26 40 46 41 40 43 42 43 40 37 29
64 56 57 58 61 61 62 57 47 47 51 51 44 44 48 42 41 36 37 37 34 32 33 33 32 32 29 30 29 25 24 23 28 31 32 47 55 49 46 47 41 34 32
63 58 58 62 61 62 59 50 47 44 46 50 35 41 46 48 45 41 40 35 37 35 34 34 31 31 31 31 29 28 23 25 28 27 28 35 39 49 49 45 41 36 36
68 80 64 62 62 62 56 54 46 49 45 42 38 42 45 49 47 41 38 39 38 39 37 33 33 32 35 32 30 32 30 25 28 28 30 34 37 41 48 51 46 40 40
79 74 71 64 64 57 58 59 54 51 53 55 42 42 46 50 50 45 39 38 38 40 40 38 38 35 32 30 30 32 30 30 30 31 33 38 39 35 41 48 50 47 46
66 65 64 59 54 57 56 57 55 54 52 50 45 42 41 48 52 48 39 39 41 34 29 31 35 34 31 32 34 33 32 33 30 30 35 39 37 33 35 45 49 52 51
64 69 38 40 49 40 45 48 57 57 50 46 49 50 44 42 50 49 44 43 43 41 31 34 34 39 40 32 34 35 36 34 33 32 33 38 38 34 33 36 45 48 41
51 55 60 54 52 53 60 60 65 63 58 49 53 56 49 44 48 50 47 42 43 45 41 35 38 38 36 39 37 37 41 40 37 34 33 36 37 35 32 33 36 44 48
45 42 97 67 44 59 57 66 54 53 51 51 47 53 47 43 45 46 48 46 40 44 45 39 40 39 40 42 41 33 39 40 43 40 33 32 36 38 35 31 36 37 44
50 53 73 97 49 46 52 57 41 39 41 51 55 50 48 47 45 48 52 47 45 49 49 44 43 45 45 48 44 38 46 46 44 43 37 35 34 36 37 34 39 38 42
52 56 41 53 77 50 56 39 46 48 44 42 54 50 53 51 48 47 53 53 48 52 54 53 51 48 49 46 45 48 44 51 47 42 39 35 36 36 39 37 38 38 44
61 57 51 76 78 61 41 54 73 66 66 68 61 60 54 50 47 46 51 53 48 53 55 58 53 49 51 54 51 49 50 47 48 44 39 36 36 36 42 45 43 33 35
65 69 66 70 73 59 67 67 79 79 78 76 65 66 62 54 50 41 48 52 53 54 55 57 54 51 51 52 49 46 45 44 46 44 42 39 37 39 41 46 45 34 31
68 73 74 79 68 64 78 84 96 85 80 77 81 83 78 70 55 48 45 48 56 60 57 52 53 49 53 56 51 52 50 50 47 47 46 43 42 42 39 40 42 40 34
80 79 84 88 88 76 79 79 93 76 89 79 79 81 83 77 79 70 58 52 53 62 61 56 58 59 53 59 61 60 61 62 56 50 48 47 48 46 42 39 39 41 37
94 91 89 84 90 90 96 95 91 89 88 74 72 77 88 79 76 79 77 76 68 64 72 71 64 70 69 56 57 62 66 69 61 54 54 52 51 52 52 36 35 34 34
98 101 101 109 107 104 106 101 99 97 98 93 92 93 92 92 89 90 89 96 91 82 76 79 84 80 86 79 74 71 65 70 67 66 61 55 55 52 53 43 38 39 39
86 92 96 104 104 104 108 106 106 108 111 108 110 111 110 111 109 99 96 95 97 90 87 88 89 94 92 89 88 81 75 63 57 58 59 59 60 56 55 53 47 47 42
84 79 80 93 94 97 106 109 108 110 114 113 114 111 115 113 116 112 103 94 91 93 92 92 92 96 99 95 93 92 82 81 77 73 73 67 70 64 63 59 54 52 49
78 83 85 92 94 99 97 99 108 111 111 108 111 111 114 110 113 103 92 96 95 87 91 96 96 100 103 104 99 97 91 88 88 83 80 75 76 71 68 64 57 56 57
73 82 88 91 98 104 102 102 104 105 106 105 103 106 107 104 109 95 105 99 94 93 92 99 103 100 105 104 102 98 98 93 89 84 83 78 82 74 70 68 60 60 59
64 68 74 80 84 89 96 99 106 107 105 99 100 98 99 86 95 88 84 87 90 89 91 95 98 100 102 104 102 99 97 93 88 86 86 88 83 82 80 72 67 63 64

GFSMA_250_spd_138.txt.gz
Wind_Speed
48 47 44 42 46 43 37 41 39 37 36 29 29 33 40 40 43 42 42 41 33 32 30 29 26 24 24 25 23 22 23 27 30 35 37 37 39 37 37 37 38 35 29
51 47 49 44 47 45 41 44 43 41 39 36 39 35 31 39 43 40 38 37 34 28 30 34 27 24 24 26 26 24 23 21 32 37 41 41 40 38 38 39 38 33 31
58 53 51 54 53 49 44 47 48 45 42 45 46 39 35 38 39 40 36 33 32 31 33 34 35 28 26 28 28 28 25 24 24 32 44 46 42 41 38 38 36 38 32
62 57 55 59 59 54 49 49 51 48 45 51 44 40 39 40 41 39 36 34 33 30 30 32 31 29 29 30 29 29 28 27 25 24 24 37 43 42 41 41 42 37 30
55 64 66 65 62 56 54 52 53 50 51 49 41 37 37 40 40 38 37 37 35 31 32 34 31 33 33 30 30 29 29 28 26 23 24 29 31 35 36 36 31 39 43
46 59 68 68 64 58 58 52 49 48 44 40 34 29 28 26 35 36 37 39 38 38 38 38 34 33 33 32 32 29 30 29 23 22 23 24 24 29 32 30 41 53 52
39 74 64 67 63 64 62 60 58 40 45 43 36 29 39 40 35 38 39 42 41 39 40 37 37 37 34 34 31 30 32 32 31 28 22 20 20 23 28 34 43 50 59
66 62 40 59 67 65 65 66 57 54 44 32 46 43 48 38 33 37 43 42 42 40 38 37 37 39 39 34 33 32 33 34 32 30 28 27 24 26 28 35 38 44 47
67 67 64 90 72 75 65 60 50 43 40 39 43 42 47 45 40 41 42 41 44 42 38 36 38 41 40 40 39 36 34 33 32 31 31 29 26 28 29 35 35 32 43
73 81 81 77 73 64 56 51 33 30 31 34 37 43 45 47 47 48 44 47 43 44 38 38 39 40 39 39 39 39 36 34 34 35 33 32 30 31 30 31 35 28 31
77 75 72 66 61 46 39 35 32 35 42 48 46 47 49 52 55 48 46 46 46 42 40 37 37 40 40 36 34 36 36 32 33 36 34 35 36 36 32 30 33 32 26
74 68 58 66 48 46 64 55 56 53 47 49 49 50 48 48 56 50 46 46 46 43 40 38 39 37 41 41 33 33 34 37 37 34 35 34 36 37 35 30 31 32 30
67 62 69 67 62 66 63 79 61 65 46 44 53 44 42 48 54 55 43 47 48 44 46 40 38 37 38 40 40 39 39 39 39 38 35 38 39 41 38 30 29 29 30
63 59 75 69 69 63 55 71 88 74 54 49 53 51 51 46 47 56 48 47 43 43 49 50 40 39 39 40 44 46 42 45 45 47 48 48 44 41 41 32 29 30 33
63 66 77 75 75 73 56 47 67 75 56 47 49 51 50 44 39 45 49 49 49 45 45 53 48 46 43 46 47 50 49 49 43 45 45 46 47 38 41 35 30 34 37
62 63 79 79 76 75 67 50 58 69 61 46 50 37 58 56 49 54 52 53 51 40 44 46 49 50 47 48 48 49 49 47 47 50 49 51 40 37 40 38 34 35 39
65 71 74 76 76 76 53 46 63 68 53 52 49 51 67 70 63 65 66 58 50 46 44 40 42 47 52 47 48 51 54 53 53 48 45 45 42 39 41 40 38 37 38
73 81 78 91 79 77 81 71 54 63 62 61 47 54 81 78 76 80 78 61 58 50 44 40 49 57 42 50 48 52 54 56 52 58 54 46 47 50 45 43 42 41 41
78 81 81 82 74 67 67 63 62 63 59 74 73 73 78 78 75 77 82 80 72 75 66 56 57 60 52 62 59 61 57 56 58 56 58 53 56 59 53 50 48 48 45
84 85 91 80 74 68 72 72 66 75 68 83 82 83 83 90 87 86 89 89 91 87 84 78 67 61 59 61 65 64 68 61 60 55 62 53 55 59 58 55 56 53 47
79 77 78 78 83 76 78 83 85 89 88 94 96 97 95 94 91 84 84 81 77 93 101 90 85 85 83 78 65 69 72 73 71 62 62 61 65 59 54 55 55 51 49
74 81 81 88 90 85 86 90 90 98 99 104 102 103 100 103 104 88 91 79 77 90 92 103 109 95 99 89 89 82 83 89 85 87 93 87 87 80 67 65 57 59 62
75 84 85 88 89 90 100 104 100 106 93 104 106 104 107 110 108 105 104 101 93 86 86 85 100 98 100 98 92 92 91 101 100 99 98 98 94 91 88 80 69 67 67
71 80 79 89 90 94 101 104 101 103 106 100 107 115 112 113 117 118 117 114 109 105 105 103 109 102 104 103 103 105 101 107 103 102 102 101 101 99 93 85 85 85 77
71 80 79 89 97 103 108 109 106 104 112 112 115 117 120 121 122 122 124 126 124 121 117 123 118 115 112 117 102 107 112 99 103 107 108 104 102 103 95 92 91 86 81
65 71 79 84 97 107 114 115 113 112 120 123 123 123 126 129 129 132 129 128 130 126 124 126 117 119 125 123 109 112 108 109 102 106 110 109 106 105 106 101 97 95 93